Flag for Austria Weather past 2 weeks in Dornbirn, Vorarlberg, Austria

Now
57 °F

Overcast.


Feels Like: 56 °F
Forecast: 42 / 61 °F
Wind: 6 mph from Southwest

Location: Saint Gallen-Altenrhein

Current Time: May 7, 2015 at 12:38:37 AM

Latest Report: May 6, 2015 at 11:20 PM


Visibility: N/A

Pressure: 30.12 "Hg

Humidity: 63%

Dew point: 45 °F

Location of DornbirnLocation

Historic Weather in Dornbirn — Graph

°F

Dornbirn temperature yesterday

Maximum temperature yesterday: 64 °F (at 3:50 PM)
Minimum temperature yesterday: 52 °F (at 8:20 AM)
Average temperature yesterday: 57 °F

Past Weeks' High & Low Weather Summary

 TemperatureHumidityPressure
High75 °F (May 4, 10:50 PM)100% (Apr 26, 12:20 AM)30.36 "Hg (Apr 26, 12:20 AM)
Low36 °F (Apr 29, 3:50 AM)17% (Apr 22, 3:20 PM)29.47 "Hg (Apr 27, 5:20 PM)
Average55 °F75%29.91 "Hg
* Reported Apr 21 11:20 PM — May 6 11:20 PM, Dornbirn, Weather by CustomWeather, © 2015

Note: Actual official high and low records may vary slightly from our data, if they occured in-between our weather recording intervals... More about our weather records

Advertising

Dornbirn weather history for previous 24 hours

 ConditionsComfort  
Time TempWeatherWind HumidityBarometerVisibility
11:20 PM
Wed, May 6
57 °FOvercast.6 mph63%30.12 "HgN/A
10:50 PM55 °FLight rain. Overcast.9 mph72%30.09 "HgN/A
10:20 PM59 °FOvercast.7 mph63%30.09 "HgN/A
9:50 PM57 °FPartly cloudy.5 mph77%30.07 "HgN/A
9:20 PM57 °FScattered showers. Broken clouds.3 mph77%30.04 "HgN/A
8:50 PM59 °FBroken clouds.3 mph68%30.04 "HgN/A
8:20 PM61 °FBroken clouds.2 mph59%30.01 "HgN/A
7:50 PM61 °FBroken clouds.1 mph68%30.01 "HgN/A
7:20 PM63 °FScattered clouds.5 mph59%30.01 "HgN/A
6:50 PM63 °FScattered clouds.5 mph64%30.01 "HgN/A
6:20 PM64 °FMild.7 mph56%30.01 "HgN/A
5:50 PM64 °FPassing clouds.6 mph60%30.01 "HgN/A
5:20 PM64 °FPassing clouds.7 mph56%30.01 "HgN/A
4:50 PM63 °FPassing clouds.6 mph52%30.04 "HgN/A
4:20 PM63 °FPassing clouds.5 mph56%30.04 "HgN/A
3:50 PM64 °FScattered clouds.5 mph56%30.04 "HgN/A
3:20 PM61 °FScattered clouds.6 mph55%30.04 "HgN/A
2:50 PM61 °FPassing clouds.6 mph59%30.07 "HgN/A
2:20 PM61 °FPassing clouds.8 mph63%30.07 "HgN/A
1:50 PM57 °FPassing clouds.7 mph72%30.07 "HgN/A
1:20 PM54 °FSunny.8 mph82%30.07 "Hg10 mi
12:50 PM54 °FScattered showers. Broken clouds.8 mph82%30.09 "HgN/A
12:20 PM52 °FScattered showers. Broken clouds.3 mph88%30.09 "HgN/A
11:50 AM52 °FLight rain. Broken clouds.5 mph88%30.09 "HgN/A
11:20 AM52 °FLight rain. Broken clouds.6 mph88%30.09 "HgN/A
10:50 AM52 °FSprinkles. Partly sunny.8 mph94%30.09 "HgN/A
10:20 AM52 °FSprinkles. Partly sunny.3 mph88%30.07 "HgN/A
9:50 AM54 °FPartly sunny.10 mph82%30.07 "HgN/A
9:20 AM52 °FLight rain. Partly sunny.9 mph88%30.07 "HgN/A
8:50 AM52 °FLight rain. Partly sunny.13 mph94%30.04 "Hg4 mi
8:20 AM52 °FLight rain. Partly sunny.13 mph88%30.04 "HgN/A
7:50 AM55 °FLight rain. Partly sunny.10 mph94%30.01 "HgN/A
7:20 AM54 °FLight rain. Partly sunny.5 mph100%30.01 "HgN/A
6:50 AM54 °FSprinkles. Partly cloudy.3 mph100%30.01 "Hg5 mi
6:20 AM54 °FRain showers. Partly cloudy.3 mph100%29.98 "Hg5 mi
5:50 AM54 °FRain showers. Partly cloudy.2 mph100%29.98 "Hg6 mi
5:20 AM55 °FPartly cloudy.1 mph94%29.98 "HgN/A
4:50 AM55 °FLots of rain. Overcast.1 mph94%29.98 "Hg3 mi
4:20 AM55 °FOvercast.2 mph94%29.98 "HgN/A
3:50 AM55 °FSprinkles. Overcast.1 mph94%29.98 "HgN/A
3:20 AM55 °FLight rain. Overcast.5 mph94%29.98 "HgN/A
2:50 AM55 °FOvercast.6 mph94%29.98 "HgN/A
2:20 AM55 °FOvercast.3 mph100%29.98 "HgN/A
1:50 AM55 °FOvercast.2 mph100%29.98 "HgN/A
1:20 AM55 °FOvercast.1 mph100%29.95 "HgN/A
12:50 AM55 °FOvercast.3 mph100%29.98 "HgN/A
12:20 AM57 °FOvercast.1 mph94%29.98 "HgN/A
Weather by CustomWeather, © 2015

See weather overviewHow to use our weather pages